Regional Weather Roundup
Issued by NWS Upton, NY

Current Version | Previous Version | Text Only | Print | Product List | Glossary On
Versions: 1 2 3 4 5 6 7 8 9 10 11 12 13 14 15 16 17 18 19 20 21 22 23 24 25 26 27 28 29 30 31 32 33 34 35 36 37 38 39 40 41 42 43 44 45 46 47
000
ASUS41 KOKX 200905
RWROKX

REGIONAL WEATHER ROUNDUP
NATIONAL WEATHER SERVICE NEW YORK NY
500 AM EDT SAT SEP 20 2014

NOTE: "FAIR" INDICATES FEW OR NO CLOUDS BELOW 12,000 FEET WITH NO
SIGNIFICANT WEATHER AND/OR OBSTRUCTIONS TO VISIBILITY.

NYZ071-072-176-178-NJZ106-104-201000-
NEW YORK CITY METRO AREA


CITY           SKY/WX    TMP DP  RH WIND       PRES   REMARKS
CENTRAL PARK   PTCLDY    58  51  78 CALM      30.35R
LAGUARDIA APRT MOCLDY    60  52  74 E5        30.32R
KENNEDY INTL   MOCLDY    57  49  74 NE5       30.33S
NEWARK/LIBERTY MOCLDY    64  54  69 CALM      30.32S
BRNX BOT. GARD   N/A     55  52  88 CALM      30.33F
TETERBORO      PTCLDY    57  49  74 NE3       30.31S
$$

NYZ177-179-078>081-201000-
LONG ISLAND NEW YORK

CITY           SKY/WX    TMP DP  RH WIND       PRES   REMARKS
FARMINGDALE    CLEAR     52  48  86 NE5       30.33S
ISLIP          CLEAR     52  48  86 CALM      30.31F
SHIRLEY        PTCLDY    50  46  86 CALM      30.34S
WESTHAMPTON    PTCLDY    47  43  86 CALM      30.35S
MONTAUK POINT    N/A     52  47  83 CALM      30.36F
$$

NYZ052-065-067-201000-
HUDSON VALLEY

CITY           SKY/WX    TMP DP  RH WIND       PRES   REMARKS
WHITE PLAINS   CLOUDY    54  50  86 CALM      30.33R
NEWBURGH       MOCLDY    52  48  87 CALM      30.32F
MONTGOMERY     MOCLDY    50  47  89 CALM      30.31F
POUGHKEEPSIE   CLOUDY    53  48  83 CALM      30.31F
ALBANY         PTCLDY    53  44  71 S9G20     30.27F
$$

NJZ001-105-106-008-010-013-015-019>022-104-201000-
NEW JERSEY

CITY           SKY/WX    TMP DP  RH WIND       PRES   REMARKS
NEWARK/LIBERTY MOCLDY    64  54  69 CALM      30.32S
TETERBORO      PTCLDY    57  49  74 NE3       30.31S
CALDWELL       CLOUDY    55  48  77 CALM      30.32F
MORRISTOWN     MOCLDY    55  52  88 NW3       30.32S
SOMERVILLE     MOCLDY    51  49  92 CALM      30.30S FOG
LINDEN         CLOUDY    65  58  76 CALM      30.33S
SUSSEX         CLOUDY    51  48  89 S3        30.31S
ANDOVER          N/A     53  51  93 CALM      30.31S
TRENTON        CLOUDY    54  51  90 N3        30.30R
MILLVILLE      PTCLDY    52  51  97 CALM      30.28R FOG
ATLANTIC CITY  CLEAR     57  55  93 CALM      30.28S
WRIGHTSTOWN    PTCLDY    51  51  99 NE2       30.28S FOG
TOMS RIVER     CLEAR     52  48  87 CALM      30.31R
BELMAR         MOCLDY    57  50  77 E5        30.31R
$$

PAZ047>061-062-071-201000-
EASTERN PENNSYLVANIA

CITY           SKY/WX    TMP DP  RH WIND       PRES   REMARKS
PHILADELPHIA   CLOUDY    60  55  83 NE3       30.30S
ALLENTOWN      CLOUDY    59  52  77 E3        30.30S
SCRANTON       CLOUDY    58  52  80 N6        30.27S
$$

CTZ002-004>006-009-010-012-RIZ004-006-007-MAZ004-011-015-201000-
SOUTHERN NEW ENGLAND
 IN CT

CITY           SKY/WX    TMP DP  RH WIND       PRES   REMARKS
BRADLEY INTL   MOCLDY    47  42  83 CALM      30.34S
HARTFORD       CLEAR     49  43  80 SW9       30.35S
DANBURY        CLOUDY    48  45  89 SE3       30.35S
WTRBRY/OXFORD  MOCLDY    46  41  81 CALM      30.35F
BRIDGEPORT     MOCLDY    61  52  72 SE7       30.34S
MERIDEN        CLOUDY    48  43  82 CALM      30.35S
NEW HAVEN      MOCLDY    56  48  74 N6        30.34S
CHESTER        PTSUNNY   46  45  93 CALM      30.35F
GROTON         CLEAR     46  44  93 N5        30.35F
WILLIMANTIC    MOCLDY    41  38  89 CALM      30.36F

 IN RI

CITY           SKY/WX    TMP DP  RH WIND       PRES   REMARKS
PROVIDENCE     CLEAR     43  39  86 CALM      30.38F
BLOCK ISLAND   CLEAR     54  45  71 SE7       30.35F
WESTERLY       CLEAR     44  42  93 N3        30.37S

 IN MA

CITY           SKY/WX    TMP DP  RH WIND       PRES   REMARKS
BOSTON         CLEAR     48  40  73 S6        30.38S
WORCESTER      PTCLDY    45  40  82 S9        30.35S
WESTFIELD      CLOUDY    44  41  89 CALM      30.36R
PROVINCETOWN   PTCLDY    52  41  66 S6        30.40R
NANTUCKET      PTCLDY    49  42  77 E5        30.39R
$$

ANZ330-335-338-340-345-350-353-355-201000-
COASTAL MARINE OBSERVATIONS


STATION/POSITION TIME  SKY/WX   TEMP    WIND        PRES    VSBY  WAVE
                                AIR SEA DIR/SP/G                  HT/PER
                 (UTC)          (F)     (DEG/KT/KT) (MB)    (MI)  (FT/S)
NY HARB ENTRANCE 0900            66 70  140/ 10/ 14 1026.7          3/ 7
4S FIRE IS       0900               69                N/A           3/ 6
20S FIRE ISLAND  0900            65 67  130/  8/ 12 1027.1          4/ 6
23SW MTP         0900                                 N/A           3/ 6
HUDSON CANYON    0900            67 72  120/ 12/ 14 1025.8          4/ 9
EXECUTION ROCKS  0900            62 70   90/  4/  6   N/A
WESTERN LI SOUND 0900            62     110/  4/  6   N/A           1
CENTRAL LI SOUND 0800            62 70  150/ 12/ 14   N/A           1/ 4
EASTERN LI SOUND 0800            61 68  140/ 10/ 14   N/A
ROBBINS REEF     0900            65     140/  8/ 10 1025.3
$$


>>>>>>>>>>>>>>>>>>>>>>>>>>>> KEY <<<<<<<<<<<<<<<<<<<<<<<<<<<
>                                                          <
>     SKY/WX - SKY CONDITION/PRESENT WEATHER               <
>     TMP    - TEMPERATURE IN FAHRENHEIT                   <
>     DP     - DEWPOINT IN FAHRENHEIT                      <
>     RH     - RELATIVE HUMIDITY IN PERCENT                <
>     WIND   - DIRECTION AND SPEED IN MPH                  <
>     PRES   - MEAN SEA LEVEL PRESSURE IN INCHES OF HG     <
>     WCI    - WIND CHILL INDEX                            <
>     VSB    - VISIBILITY IN MILES                         <
>     HX     - HEAT INDEX                                  <
>     TC     - TEMPERATURE IN CELSIUS                      <
>     VRB    - VARIABLE WIND DIRECTION                     <
>                                                          <
>>>>>>>>>>>>>>>>>>>>>>>>>>>> KEY <<<<<<<<<<<<<<<<<<<<<<<<<<<





USA.gov is the U.S. government's official web portal to all federal, state and local government web resources and services.